#timestamp,LO_Frequency,Hit,StdDev 
1551934815.4,286047004.3,P
1551934835.2,286047004.1,N
1551934855.0,286047000.8,N
1551934855.9,286047000.8,N
1551934875.8,286046995.3,N
1551934895.6,286046997.2,N
1551934915.4,286046999.0,N
1551934935.3,286046999.4,N
1551934955.1,286047002.2,N
1551934975.9,286047002.7,N
1551934995.7,286047001.2,N
1551935015.5,286046998.1,N
1551935035.4,286047000.7,N
1551935055.2,286046998.9,N
1551935075.0,286046999.6,N
1551935075.9,286046999.6,N
1551935095.8,286046999.6,N
1551935115.6,286046996.5,N
1551935135.5,286046999.6,N
1551935155.3,286047000.6,N
1551935175.1,286046999.7,N
1551935195.9,286047000.4,N
1551935215.7,286047000.9,N
1551935235.5,286047000.5,N
1551935255.4,286047002.5,N
1551935275.2,286047003.2,N
1551935295.1,286047001.9,N
1551935296.0,286047001.9,N
1551935315.8,286047001.0,N
1551935335.6,286047001.0,N
1551935355.5,286047002.7,N
1551935375.3,286046999.8,N
1551935395.1,286046999.9,N
1551935415.9,286046999.7,N
1551935435.7,286047002.3,N
1551935455.6,286047004.4,N
1551935475.4,286047000.0,N
1551935495.2,286047002.2,N
1551935515.1,286046999.7,N
1551935516.0,286046999.7,N
1551935535.8,286047002.1,N
1551935555.7,286047002.6,N
1551935575.5,286046999.7,N
1551935595.3,286047002.6,N
1551935615.2,286047002.2,N
1551935635.0,286047001.9,N
1551935635.9,286047001.9,N
1551935655.8,286047005.8,Y
1551935675.6,286047001.3,P
1551935695.4,286047003.5,P
1551935715.3,286047003.5,P
1551935735.1,286047003.9,Y
1551935755.8,286046998.8,P
1551935775.7,286046997.7,N
1551935795.5,286046996.7,N
1551935815.4,286046996.8,N
1551935835.2,286046997.8,N
1551935855.0,286046996.6,N
1551935855.9,286046996.6,N
1551935875.8,286046999.1,N
1551935895.6,286046998.9,N
1551935915.5,286046996.5,N
1551935935.3,286046999.5,N
1551935955.1,286046997.0,N
1551935975.9,286046999.5,N
1551935995.7,286046999.2,N
1551936015.5,286046999.2,N
1551936035.4,286046999.7,N
1551936055.2,286047000.9,N
1551936075.1,286046998.1,N
1551936076.0,286046998.1,N
1551936095.8,286046999.1,N
1551936115.6,286046998.3,N
1551936135.5,286046998.7,N
1551936155.3,286047000.9,N
1551936175.2,286047002.6,N
1551936195.9,286047002.7,N
1551936215.7,286047000.9,N
1551936235.6,286046997.6,N
1551936255.4,286046995.2,N
1551936275.2,286046996.3,N
1551936295.1,286046994.7,N
1551936296.0,286046994.7,N
1551936315.8,286046992.1,Y
1551936335.7,286046995.0,P
1551936355.5,286046998.0,N
1551936375.7,286046996.1,N
1551936395.5,286046996.3,N
1551936415.4,286046997.4,N
1551936435.2,286046993.3,Y
1551936455.1,286046999.4,P
1551936475.1,286046999.5,N
1551936495.9,286046999.4,N
1551936515.7,286047002.7,N
1551936535.6,286047002.0,N
1551936555.4,286047001.8,N
1551936575.2,286047003.6,N
1551936595.1,286047005.8,N
1551936596.0,286047005.8,N
1551936615.8,286047003.9,N
1551936635.7,286047000.5,N
1551936655.5,286046998.7,N
1551936675.3,286047001.0,N
1551936695.2,286047002.5,N
1551936715.0,286047002.0,N
1551936715.9,286047002.0,N
1551936735.7,286047004.8,N
1551936755.6,286047002.9,N
1551936775.4,286047003.3,N
1551936795.3,286047003.4,N
1551936815.1,286047006.4,N
1551936835.8,286047006.3,N
1551936855.7,286047007.1,N
1551936875.5,286047003.3,N
1551936895.4,286047005.7,N
1551936915.2,286047003.6,N
1551936935.0,286047004.1,N
1551936935.9,286047004.1,N
1551936955.8,286047003.5,N
1551936975.6,286047005.4,N
1551936995.4,286047005.9,N
1551937015.3,286047005.0,N
1551937035.1,286047004.7,N
1551937055.9,286047003.0,N
1551937075.7,286047002.9,N
1551937095.5,286047004.4,N
1551937115.4,286047002.2,N
1551937135.2,286047001.3,N
1551937155.0,286047000.0,N
1551937155.9,286047000.0,N
1551937175.8,286047000.0,N
1551937195.6,286047002.8,N
1551937215.5,286047000.5,N
1551937235.3,286047002.1,N
1551937255.1,286047004.1,N
1551937275.9,286047006.0,Y
1551937295.7,286047000.6,P
1551937315.6,286047002.6,N
1551937335.4,286047002.6,N
1551937355.2,286047000.1,N
1551937375.1,286047002.6,N
1551937376.0,286047002.6,N
1551937395.8,286047002.8,N
1551937415.6,286047002.5,N
1551937435.5,286047002.7,N
1551937455.3,286046999.8,N
1551937475.2,286047002.4,N
1551937495.9,286046999.8,N
1551937515.7,286047000.8,N
1551937535.6,286046998.3,N
1551937555.4,286047000.6,N
1551937575.2,286047000.4,N
1551937595.1,286047000.3,N
1551937596.0,286047000.3,N
1551937615.8,286047002.7,N
1551937635.7,286047002.5,N
1551937655.5,286047000.1,N
1551937675.3,286047000.8,N
1551937695.2,286047002.3,N
1551937715.0,286047002.8,N
1551937715.9,286047002.8,N
1551937735.8,286047000.4,N
1551937755.6,286046999.8,N
1551937775.4,286047000.3,N
1551937795.3,286047000.0,N
1551937815.1,286046998.2,N
1551937835.9,286046998.3,N
1551937855.7,286046998.3,N
1551937875.5,286046998.9,N
1551937895.4,286046999.1,N
1551937915.2,286046995.3,Y
1551937935.0,286046995.6,P
1551937935.9,286046995.6,N
1551937955.8,286046995.0,N
1551937975.6,286046995.0,N
1551937995.5,286046997.7,N
1551938015.3,286046994.9,N
1551938035.1,286046996.6,N
1551938055.9,286046999.2,N
1551938075.7,286046997.1,N
1551938095.5,286046995.7,N
1551938115.4,286046994.0,Y
1551938135.2,286046997.7,P
1551938155.1,286046996.7,P
1551938156.0,286046996.7,P
1551938175.8,286046998.9,N
1551938195.6,286046998.8,N
1551938215.5,286046998.7,N
1551938235.3,286046999.3,N
1551938255.2,286046999.5,N
1551938275.9,286046996.8,N
1551938295.7,286046997.6,N
1551938315.6,286046995.4,Y
1551938335.4,286046999.2,P
1551938355.2,286046999.1,N
1551938375.1,286046998.4,N
1551938376.0,286046998.4,Y
1551938395.8,286046998.2,P
